Year,Month,Day,Hour,Minute,Value (Times are PST for temperature in C)
2006,05,31,00,00,12.50
2006,05,31,00,01,12.50
2006,05,31,00,02,12.50
2006,05,31,00,03,12.50
2006,05,31,00,04,12.50
2006,05,31,00,05,12.50
2006,05,31,00,06,12.50
2006,05,31,00,07,12.50
2006,05,31,00,08,12.50
2006,05,31,00,09,12.50
2006,05,31,00,10,12.50
2006,05,31,00,11,12.50
2006,05,31,00,12,12.50
2006,05,31,00,13,12.50
2006,05,31,00,14,12.50
2006,05,31,00,15,12.50
2006,05,31,00,16,12.50
2006,05,31,00,17,12.40
2006,05,31,00,18,12.40
2006,05,31,00,19,12.40
2006,05,31,00,20,12.40
2006,05,31,00,21,12.40
2006,05,31,00,22,12.30
2006,05,31,00,23,12.30
2006,05,31,00,24,12.30
2006,05,31,00,25,12.30
2006,05,31,00,26,12.30
2006,05,31,00,27,12.30
2006,05,31,00,28,12.30
2006,05,31,00,29,12.30
2006,05,31,00,30,12.30
2006,05,31,00,31,12.30
2006,05,31,00,32,12.30
2006,05,31,00,33,12.30
2006,05,31,00,34,12.30
2006,05,31,00,35,12.40
2006,05,31,00,36,12.40
2006,05,31,00,37,12.40
2006,05,31,00,38,12.40
2006,05,31,00,39,12.40
2006,05,31,00,40,12.40
2006,05,31,00,41,12.50
2006,05,31,00,42,12.50
2006,05,31,00,43,12.50
2006,05,31,00,44,12.50
2006,05,31,00,45,12.50
2006,05,31,00,46,12.50
2006,05,31,00,47,12.50
2006,05,31,00,48,12.60
2006,05,31,00,49,12.60
2006,05,31,00,50,12.60
2006,05,31,00,51,12.60
2006,05,31,00,52,12.70
2006,05,31,00,53,12.70
2006,05,31,00,54,12.70
2006,05,31,00,55,12.70
2006,05,31,00,56,12.70
2006,05,31,00,57,12.70
2006,05,31,00,58,12.70
2006,05,31,00,59,12.70
2006,05,31,01,00,12.70
2006,05,31,01,01,12.70
2006,05,31,01,02,12.70
2006,05,31,01,03,12.70
2006,05,31,01,04,12.70
2006,05,31,01,05,12.70
2006,05,31,01,06,12.70
2006,05,31,01,07,12.70
2006,05,31,01,08,12.80
2006,05,31,01,09,12.80
2006,05,31,01,10,12.80
2006,05,31,01,11,12.80
2006,05,31,01,12,12.80
2006,05,31,01,13,12.90
2006,05,31,01,14,12.90
2006,05,31,01,15,13.00
2006,05,31,01,16,13.00
2006,05,31,01,17,13.10
2006,05,31,01,18,13.10
2006,05,31,01,19,13.00
2006,05,31,01,20,13.00
2006,05,31,01,21,13.00
2006,05,31,01,22,13.00
2006,05,31,01,23,13.00
2006,05,31,01,24,13.00
2006,05,31,01,25,13.00
2006,05,31,01,26,13.10
2006,05,31,01,27,13.10
2006,05,31,01,28,13.00
2006,05,31,01,29,13.00
2006,05,31,01,30,13.00
2006,05,31,01,31,13.00
2006,05,31,01,32,12.90
2006,05,31,01,33,13.00
2006,05,31,01,34,13.00
2006,05,31,01,35,13.00
2006,05,31,01,36,13.00
2006,05,31,01,37,13.10
2006,05,31,01,38,13.10
2006,05,31,01,39,13.20
2006,05,31,01,40,13.30
2006,05,31,01,41,13.30
2006,05,31,01,42,13.40
2006,05,31,01,43,13.50
2006,05,31,01,44,13.60
2006,05,31,01,45,13.60
2006,05,31,01,46,13.60
2006,05,31,01,47,13.70
2006,05,31,01,48,13.70
2006,05,31,01,49,13.70
2006,05,31,01,50,13.60
2006,05,31,01,51,13.60
2006,05,31,01,52,13.60
2006,05,31,01,53,13.60
2006,05,31,01,54,13.50
2006,05,31,01,55,13.50
2006,05,31,01,56,13.50
2006,05,31,01,57,13.40
2006,05,31,01,58,13.50
2006,05,31,01,59,13.50
2006,05,31,02,00,13.50
2006,05,31,02,01,13.50
2006,05,31,02,02,13.50
2006,05,31,02,03,13.50
2006,05,31,02,04,13.50
2006,05,31,02,05,13.60
2006,05,31,02,06,13.60
2006,05,31,02,07,13.60
2006,05,31,02,08,13.60
2006,05,31,02,09,13.60
2006,05,31,02,10,13.60
2006,05,31,02,11,13.50
2006,05,31,02,12,13.50
2006,05,31,02,13,13.40
2006,05,31,02,14,13.30
2006,05,31,02,15,13.30
2006,05,31,02,16,13.30
2006,05,31,02,17,13.20
2006,05,31,02,18,13.20
2006,05,31,02,19,13.10
2006,05,31,02,20,13.00
2006,05,31,02,21,13.00
2006,05,31,02,22,12.90
2006,05,31,02,23,12.90
2006,05,31,02,24,12.90
2006,05,31,02,25,12.90
2006,05,31,02,26,12.80
2006,05,31,02,27,12.80
2006,05,31,02,28,12.80
2006,05,31,02,29,12.80
2006,05,31,02,30,12.90
2006,05,31,02,31,12.90
2006,05,31,02,32,12.90
2006,05,31,02,33,13.00
2006,05,31,02,34,13.00
2006,05,31,02,35,13.00
2006,05,31,02,36,13.10
2006,05,31,02,37,13.10
2006,05,31,02,38,13.10
2006,05,31,02,39,13.20
2006,05,31,02,40,13.30
2006,05,31,02,41,13.30
2006,05,31,02,42,13.40
2006,05,31,02,43,13.50
2006,05,31,02,44,13.60
2006,05,31,02,45,13.70
2006,05,31,02,46,13.70
2006,05,31,02,47,13.70
2006,05,31,02,48,13.80
2006,05,31,02,49,13.80
2006,05,31,02,50,13.90
2006,05,31,02,51,13.90
2006,05,31,02,52,13.90
2006,05,31,02,53,13.90
2006,05,31,02,54,13.90
2006,05,31,02,55,14.00
2006,05,31,02,56,14.00
2006,05,31,02,57,14.00
2006,05,31,02,58,14.00
2006,05,31,02,59,14.00
2006,05,31,03,00,13.90
2006,05,31,03,01,13.90
2006,05,31,03,02,13.80
2006,05,31,03,03,13.80
2006,05,31,03,04,13.80
2006,05,31,03,05,13.80
2006,05,31,03,06,13.80
2006,05,31,03,07,13.80
2006,05,31,03,08,13.80
2006,05,31,03,09,13.80
2006,05,31,03,10,13.90
2006,05,31,03,11,13.90
2006,05,31,03,12,13.90
2006,05,31,03,13,13.90
2006,05,31,03,14,13.90
2006,05,31,03,15,13.90
2006,05,31,03,16,13.90
2006,05,31,03,17,13.90
2006,05,31,03,18,13.90
2006,05,31,03,19,13.90
2006,05,31,03,20,13.90
2006,05,31,03,21,13.90
2006,05,31,03,22,13.90
2006,05,31,03,23,13.90
2006,05,31,03,24,13.80
2006,05,31,03,25,13.80
2006,05,31,03,26,13.80
2006,05,31,03,27,13.80
2006,05,31,03,28,13.80
2006,05,31,03,29,13.80
2006,05,31,03,30,13.70
2006,05,31,03,31,13.70
2006,05,31,03,32,13.70
2006,05,31,03,33,13.80
2006,05,31,03,34,13.80
2006,05,31,03,35,13.90
2006,05,31,03,36,13.90
2006,05,31,03,37,13.90
2006,05,31,03,38,14.00
2006,05,31,03,39,14.00
2006,05,31,03,40,14.00
2006,05,31,03,41,14.10
2006,05,31,03,42,14.10
2006,05,31,03,43,14.10
2006,05,31,03,44,14.10
2006,05,31,03,45,14.20
2006,05,31,03,46,14.20
2006,05,31,03,47,14.20
2006,05,31,03,48,14.20
2006,05,31,03,49,14.20
2006,05,31,03,50,14.20
2006,05,31,03,51,14.20
2006,05,31,03,52,14.20
2006,05,31,03,53,14.20
2006,05,31,03,54,14.20
2006,05,31,03,55,14.20
2006,05,31,03,56,14.20
2006,05,31,03,57,14.20
2006,05,31,03,58,14.20
2006,05,31,03,59,14.20
2006,05,31,04,00,14.10
2006,05,31,04,01,14.10
2006,05,31,04,02,14.10
2006,05,31,04,03,14.10
2006,05,31,04,04,14.10
2006,05,31,04,05,14.10
2006,05,31,04,06,14.10
2006,05,31,04,07,14.10
2006,05,31,04,08,14.10
2006,05,31,04,09,14.10
2006,05,31,04,10,14.10
2006,05,31,04,11,14.00
2006,05,31,04,12,14.00
2006,05,31,04,13,13.90
2006,05,31,04,14,13.90
2006,05,31,04,15,13.90
2006,05,31,04,16,13.80
2006,05,31,04,17,13.80
2006,05,31,04,18,13.70
2006,05,31,04,19,13.70
2006,05,31,04,20,13.70
2006,05,31,04,21,13.60
2006,05,31,04,22,13.60
2006,05,31,04,23,13.50
2006,05,31,04,24,13.40
2006,05,31,04,25,13.40
2006,05,31,04,26,13.30
2006,05,31,04,27,13.20
2006,05,31,04,28,13.10
2006,05,31,04,29,12.90
2006,05,31,04,30,12.70
2006,05,31,04,31,12.50
2006,05,31,04,32,12.30
2006,05,31,04,33,12.20
2006,05,31,04,34,12.10
2006,05,31,04,35,12.10
2006,05,31,04,36,12.00
2006,05,31,04,37,12.00
2006,05,31,04,38,11.90
2006,05,31,04,39,11.90
2006,05,31,04,40,11.90
2006,05,31,04,41,11.90
2006,05,31,04,42,11.80
2006,05,31,04,43,11.80
2006,05,31,04,44,11.80
2006,05,31,04,45,11.80
2006,05,31,04,46,11.80
2006,05,31,04,47,11.80
2006,05,31,04,48,11.80
2006,05,31,04,49,11.80
2006,05,31,04,50,11.80
2006,05,31,04,51,11.80
2006,05,31,04,52,11.80
2006,05,31,04,53,11.80
2006,05,31,04,54,11.80
2006,05,31,04,55,11.90
2006,05,31,04,56,11.90
2006,05,31,04,57,11.90
2006,05,31,04,58,11.90
2006,05,31,04,59,12.00
2006,05,31,05,00,12.00
2006,05,31,05,01,12.00
2006,05,31,05,02,12.00
2006,05,31,05,03,12.10
2006,05,31,05,04,12.10
2006,05,31,05,05,12.10
2006,05,31,05,06,12.10
2006,05,31,05,07,12.10
2006,05,31,05,08,12.10
2006,05,31,05,09,12.10
2006,05,31,05,10,12.00
2006,05,31,05,11,12.00
2006,05,31,05,12,12.00
2006,05,31,05,13,12.00
2006,05,31,05,14,12.10
2006,05,31,05,15,12.10
2006,05,31,05,16,12.10
2006,05,31,05,17,12.10
2006,05,31,05,18,12.10
2006,05,31,05,19,12.10
2006,05,31,05,20,12.10
2006,05,31,05,21,12.00
2006,05,31,05,22,12.00
2006,05,31,05,23,12.00
2006,05,31,05,24,12.00
2006,05,31,05,25,12.00
2006,05,31,05,26,11.90
2006,05,31,05,27,11.90
2006,05,31,05,28,11.90
2006,05,31,05,29,11.90
2006,05,31,05,30,11.90
2006,05,31,05,31,11.90
2006,05,31,05,32,11.90
2006,05,31,05,33,11.80
2006,05,31,05,34,11.80
2006,05,31,05,35,11.80
2006,05,31,05,36,11.80
2006,05,31,05,37,11.80
2006,05,31,05,38,11.80
2006,05,31,05,39,11.80
2006,05,31,05,40,11.80
2006,05,31,05,41,11.80
2006,05,31,05,42,11.80
2006,05,31,05,43,11.70
2006,05,31,05,44,11.70
2006,05,31,05,45,11.70
2006,05,31,05,46,11.60
2006,05,31,05,47,11.60
2006,05,31,05,48,11.60
2006,05,31,05,49,11.60
2006,05,31,05,50,11.60
2006,05,31,05,51,11.60
2006,05,31,05,52,11.60
2006,05,31,05,53,11.60
2006,05,31,05,54,11.60
2006,05,31,05,55,11.60
2006,05,31,05,56,11.60
2006,05,31,05,57,11.60
2006,05,31,05,58,11.60
2006,05,31,05,59,11.60
2006,05,31,06,00,11.60
2006,05,31,06,01,11.60
2006,05,31,06,02,11.60
2006,05,31,06,03,11.50
2006,05,31,06,04,11.40
2006,05,31,06,05,11.40
2006,05,31,06,06,11.40
2006,05,31,06,07,11.50
2006,05,31,06,08,11.60
2006,05,31,06,09,11.60
2006,05,31,06,10,11.60
2006,05,31,06,11,11.60
2006,05,31,06,12,11.60
2006,05,31,06,13,11.60
2006,05,31,06,14,11.60
2006,05,31,06,15,11.70
2006,05,31,06,16,11.70
2006,05,31,06,17,11.80
2006,05,31,06,18,11.80
2006,05,31,06,19,12.00
2006,05,31,06,20,12.10
2006,05,31,06,21,12.10
2006,05,31,06,22,12.20
2006,05,31,06,23,12.30
2006,05,31,06,24,12.30
2006,05,31,06,25,12.30
2006,05,31,06,26,12.30
2006,05,31,06,27,12.40
2006,05,31,06,28,12.40
2006,05,31,06,29,12.40
2006,05,31,06,30,12.40
2006,05,31,06,31,12.40
2006,05,31,06,32,12.40
2006,05,31,06,33,12.40
2006,05,31,06,34,12.40
2006,05,31,06,35,12.50
2006,05,31,06,36,12.50
2006,05,31,06,37,12.50
2006,05,31,06,38,12.50
2006,05,31,06,39,12.50
2006,05,31,06,40,12.50
2006,05,31,06,41,12.50
2006,05,31,06,42,12.50
2006,05,31,06,43,12.50
2006,05,31,06,44,12.50
2006,05,31,06,45,12.50
2006,05,31,06,46,12.50
2006,05,31,06,47,12.60
2006,05,31,06,48,12.60
2006,05,31,06,49,12.60
2006,05,31,06,50,12.70
2006,05,31,06,51,12.70
2006,05,31,06,52,12.70
2006,05,31,06,53,12.80
2006,05,31,06,54,12.80
2006,05,31,06,55,12.80
2006,05,31,06,56,12.80
2006,05,31,06,57,13.00
2006,05,31,06,58,13.00
2006,05,31,06,59,13.10
2006,05,31,07,00,13.20
2006,05,31,07,01,13.20
2006,05,31,07,02,13.30
2006,05,31,07,03,13.30
2006,05,31,07,04,13.30
2006,05,31,07,05,13.30
2006,05,31,07,06,13.40
2006,05,31,07,07,13.40
2006,05,31,07,08,13.40
2006,05,31,07,09,13.40
2006,05,31,07,10,13.40
2006,05,31,07,11,13.40
2006,05,31,07,12,13.40
2006,05,31,07,13,13.40
2006,05,31,07,14,13.40
2006,05,31,07,15,13.40
2006,05,31,07,16,13.40
2006,05,31,07,17,13.40
2006,05,31,07,18,13.40
2006,05,31,07,19,13.40
2006,05,31,07,20,13.50
2006,05,31,07,21,13.50
2006,05,31,07,22,13.50
2006,05,31,07,23,13.50
2006,05,31,07,24,13.50
2006,05,31,07,25,13.60
2006,05,31,07,26,13.60
2006,05,31,07,27,13.60
2006,05,31,07,28,13.60
2006,05,31,07,29,13.60
2006,05,31,07,30,13.60
2006,05,31,07,31,13.60
2006,05,31,07,32,13.70
2006,05,31,07,33,13.70
2006,05,31,07,34,13.70
2006,05,31,07,35,13.70
2006,05,31,07,36,13.70
2006,05,31,07,37,13.70
2006,05,31,07,38,13.70
2006,05,31,07,39,13.80
2006,05,31,07,40,13.80
2006,05,31,07,41,13.90
2006,05,31,07,42,13.90
2006,05,31,07,43,13.90
2006,05,31,07,44,14.00
2006,05,31,07,45,14.00
2006,05,31,07,46,14.00
2006,05,31,07,47,14.00
2006,05,31,07,48,14.00
2006,05,31,07,49,14.10
2006,05,31,07,50,14.10
2006,05,31,07,51,14.10
2006,05,31,07,52,14.10
2006,05,31,07,53,14.10
2006,05,31,07,54,14.10
2006,05,31,07,55,14.20
2006,05,31,07,56,14.20
2006,05,31,07,57,14.20
2006,05,31,07,58,14.20
2006,05,31,07,59,14.20
2006,05,31,08,00,14.20
2006,05,31,08,01,14.20
2006,05,31,08,02,14.20
2006,05,31,08,03,14.20
2006,05,31,08,04,14.20
2006,05,31,08,05,14.30
2006,05,31,08,06,14.30
2006,05,31,08,07,14.30
2006,05,31,08,08,14.30
2006,05,31,08,09,14.30
2006,05,31,08,10,14.40
2006,05,31,08,11,14.40
2006,05,31,08,12,14.40
2006,05,31,08,13,14.40
2006,05,31,08,14,14.40
2006,05,31,08,15,14.30
2006,05,31,08,16,14.30
2006,05,31,08,17,14.30
2006,05,31,08,18,14.20
2006,05,31,08,19,14.20
2006,05,31,08,20,14.20
2006,05,31,08,21,14.20
2006,05,31,08,22,14.20
2006,05,31,08,23,14.20
2006,05,31,08,24,14.20
2006,05,31,08,25,14.20
2006,05,31,08,26,14.20
2006,05,31,08,27,14.20
2006,05,31,08,28,14.20
2006,05,31,08,29,14.20
2006,05,31,08,30,14.20
2006,05,31,08,31,14.20
2006,05,31,08,32,14.20
2006,05,31,08,33,14.30
2006,05,31,08,34,14.30
2006,05,31,08,35,14.30
2006,05,31,08,36,14.40
2006,05,31,08,37,14.40
2006,05,31,08,38,14.40
2006,05,31,08,39,14.40
2006,05,31,08,40,14.50
2006,05,31,08,41,14.60
2006,05,31,08,42,14.60
2006,05,31,08,43,14.70
2006,05,31,08,44,14.70
2006,05,31,08,45,14.80
2006,05,31,08,46,14.80
2006,05,31,08,47,14.80
2006,05,31,08,48,14.80
2006,05,31,08,49,14.90
2006,05,31,08,50,14.90
2006,05,31,08,51,15.00
2006,05,31,08,52,15.10
2006,05,31,08,53,15.20
2006,05,31,08,54,15.30
2006,05,31,08,55,15.30
2006,05,31,08,56,15.50
2006,05,31,08,57,15.60
2006,05,31,08,58,15.60
2006,05,31,08,59,15.70
2006,05,31,09,00,15.80
2006,05,31,09,01,16.00
2006,05,31,09,02,16.10
2006,05,31,09,03,16.10
2006,05,31,09,04,16.20
2006,05,31,09,05,16.20
2006,05,31,09,06,16.30
2006,05,31,09,07,16.40
2006,05,31,09,08,16.40
2006,05,31,09,09,16.50
2006,05,31,09,10,16.60
2006,05,31,09,11,16.60
2006,05,31,09,12,16.60
2006,05,31,09,13,16.70
2006,05,31,09,14,16.70
2006,05,31,09,15,16.80
2006,05,31,09,16,16.80
2006,05,31,09,17,16.90
2006,05,31,09,18,17.00
2006,05,31,09,19,17.00
2006,05,31,09,20,17.10
2006,05,31,09,21,17.20
2006,05,31,09,22,17.20
2006,05,31,09,23,17.30
2006,05,31,09,24,17.40
2006,05,31,09,25,17.50
2006,05,31,09,26,17.60
2006,05,31,09,27,17.60
2006,05,31,09,28,17.70
2006,05,31,09,29,17.70
2006,05,31,09,30,17.70
2006,05,31,09,31,17.70
2006,05,31,09,32,17.90
2006,05,31,09,33,17.90
2006,05,31,09,34,17.90
2006,05,31,09,35,17.90
2006,05,31,09,36,17.90
2006,05,31,09,37,17.80
2006,05,31,09,38,17.80
2006,05,31,09,39,17.60
2006,05,31,09,40,17.60
2006,05,31,09,41,17.50
2006,05,31,09,42,17.50
2006,05,31,09,43,17.50
2006,05,31,09,44,17.50
2006,05,31,09,45,17.50
2006,05,31,09,46,17.40
2006,05,31,09,47,17.50
2006,05,31,09,48,17.50
2006,05,31,09,49,17.60
2006,05,31,09,50,17.70
2006,05,31,09,51,17.80
2006,05,31,09,52,17.80
2006,05,31,09,53,17.80
2006,05,31,09,54,17.90
2006,05,31,09,55,17.90
2006,05,31,09,56,17.90
2006,05,31,09,57,18.00
2006,05,31,09,58,18.10
2006,05,31,09,59,18.10
2006,05,31,10,00,18.10
2006,05,31,10,01,18.20
2006,05,31,10,02,18.20
2006,05,31,10,03,18.20
2006,05,31,10,04,18.20
2006,05,31,10,05,18.20
2006,05,31,10,06,18.10
2006,05,31,10,07,18.10
2006,05,31,10,08,18.00
2006,05,31,10,09,17.90
2006,05,31,10,10,17.90
2006,05,31,10,11,17.80
2006,05,31,10,12,17.80
2006,05,31,10,13,17.70
2006,05,31,10,14,17.70
2006,05,31,10,15,17.80
2006,05,31,10,16,17.80
2006,05,31,10,17,17.80
2006,05,31,10,18,17.70
2006,05,31,10,19,17.70
2006,05,31,10,20,17.60
2006,05,31,10,21,17.60
2006,05,31,10,22,17.70
2006,05,31,10,23,17.80
2006,05,31,10,24,17.90
2006,05,31,10,25,18.10
2006,05,31,10,26,18.20
2006,05,31,10,27,18.20
2006,05,31,10,28,18.20
2006,05,31,10,29,18.20
2006,05,31,10,30,18.20
2006,05,31,10,31,18.20
2006,05,31,10,32,18.20
2006,05,31,10,33,18.40
2006,05,31,10,34,18.50
2006,05,31,10,35,18.50
2006,05,31,10,36,18.50
2006,05,31,10,37,18.50
2006,05,31,10,38,18.50
2006,05,31,10,39,18.50
2006,05,31,10,40,18.40
2006,05,31,10,41,18.40
2006,05,31,10,42,18.40
2006,05,31,10,43,18.50
2006,05,31,10,44,18.50
2006,05,31,10,45,18.50
2006,05,31,10,46,18.50
2006,05,31,10,47,18.50
2006,05,31,10,48,18.50
2006,05,31,10,49,18.50
2006,05,31,10,50,18.50
2006,05,31,10,51,18.50
2006,05,31,10,52,18.60
2006,05,31,10,53,18.60
2006,05,31,10,54,18.60
2006,05,31,10,55,18.70
2006,05,31,10,56,18.70
2006,05,31,10,57,18.80
2006,05,31,10,58,18.80
2006,05,31,10,59,18.90
2006,05,31,11,00,18.90
2006,05,31,11,01,18.80
2006,05,31,11,02,18.70
2006,05,31,11,03,18.60
2006,05,31,11,04,18.50
2006,05,31,11,05,18.40
2006,05,31,11,06,18.40
2006,05,31,11,07,18.20
2006,05,31,11,08,18.00
2006,05,31,11,09,17.90
2006,05,31,11,10,17.80
2006,05,31,11,11,17.80
2006,05,31,11,12,17.60
2006,05,31,11,13,17.40
2006,05,31,11,14,17.30
2006,05,31,11,15,17.30
2006,05,31,11,16,17.40
2006,05,31,11,17,17.40
2006,05,31,11,18,17.50
2006,05,31,11,19,17.60
2006,05,31,11,20,17.70
2006,05,31,11,21,17.70
2006,05,31,11,22,17.70
2006,05,31,11,23,17.60
2006,05,31,11,24,17.60
2006,05,31,11,25,17.50
2006,05,31,11,26,17.50
2006,05,31,11,27,17.40
2006,05,31,11,28,17.30
2006,05,31,11,29,17.40
2006,05,31,11,30,17.40
2006,05,31,11,31,17.40
2006,05,31,11,32,17.30
2006,05,31,11,33,17.30
2006,05,31,11,34,17.30
2006,05,31,11,35,17.20
2006,05,31,11,36,17.10
2006,05,31,11,37,17.00
2006,05,31,11,38,16.90
2006,05,31,11,39,16.80
2006,05,31,11,40,16.70
2006,05,31,11,41,16.70
2006,05,31,11,42,16.70
2006,05,31,11,43,16.70
2006,05,31,11,44,16.80
2006,05,31,11,45,16.80
2006,05,31,11,46,16.70
2006,05,31,11,47,16.70
2006,05,31,11,48,16.70
2006,05,31,11,49,16.70
2006,05,31,11,50,16.70
2006,05,31,11,51,16.80
2006,05,31,11,52,16.80
2006,05,31,11,53,16.80
2006,05,31,11,54,16.90
2006,05,31,11,55,17.00
2006,05,31,11,56,17.00
2006,05,31,11,57,17.00
2006,05,31,11,58,17.00
2006,05,31,11,59,17.00
2006,05,31,12,00,17.00
2006,05,31,12,01,17.00
2006,05,31,12,02,16.90
2006,05,31,12,03,16.90
2006,05,31,12,04,16.90
2006,05,31,12,05,17.00
2006,05,31,12,06,17.00
2006,05,31,12,07,17.10
2006,05,31,12,08,17.20
2006,05,31,12,09,17.30
2006,05,31,12,10,17.30
2006,05,31,12,11,17.30
2006,05,31,12,12,17.30
2006,05,31,12,13,17.30
2006,05,31,12,14,17.30
2006,05,31,12,15,17.30
2006,05,31,12,16,17.30
2006,05,31,12,17,17.30
2006,05,31,12,18,17.20
2006,05,31,12,19,17.00
2006,05,31,12,20,16.90
2006,05,31,12,21,16.90
2006,05,31,12,22,16.90
2006,05,31,12,23,16.70
2006,05,31,12,24,16.60
2006,05,31,12,25,16.60
2006,05,31,12,26,16.60
2006,05,31,12,27,16.60
2006,05,31,12,28,16.60
2006,05,31,12,29,16.60
2006,05,31,12,30,16.70
2006,05,31,12,31,16.60
2006,05,31,12,32,16.60
2006,05,31,12,33,16.60
2006,05,31,12,34,16.60
2006,05,31,12,35,16.60
2006,05,31,12,36,16.60
2006,05,31,12,37,16.60
2006,05,31,12,38,16.60
2006,05,31,12,39,16.60
2006,05,31,12,40,16.60
2006,05,31,12,41,16.60
2006,05,31,12,42,16.60
2006,05,31,12,43,16.60
2006,05,31,12,44,16.60
2006,05,31,12,45,16.50
2006,05,31,12,46,16.40
2006,05,31,12,47,16.30
2006,05,31,12,48,16.30
2006,05,31,12,49,16.30
2006,05,31,12,50,16.30
2006,05,31,12,51,16.40
2006,05,31,12,52,16.50
2006,05,31,12,53,16.60
2006,05,31,12,54,16.60
2006,05,31,12,55,16.70
2006,05,31,12,56,16.70
2006,05,31,12,57,16.80
2006,05,31,12,58,17.00
2006,05,31,12,59,17.00
2006,05,31,13,00,17.00
2006,05,31,13,01,17.10
2006,05,31,13,02,17.10
2006,05,31,13,03,17.10
2006,05,31,13,04,17.10
2006,05,31,13,05,17.00
2006,05,31,13,06,17.00
2006,05,31,13,07,17.00
2006,05,31,13,08,17.00
2006,05,31,13,09,16.90
2006,05,31,13,10,16.90
2006,05,31,13,11,16.90
2006,05,31,13,12,17.00
2006,05,31,13,13,17.10
2006,05,31,13,14,17.10
2006,05,31,13,15,17.10
2006,05,31,13,16,17.20
2006,05,31,13,17,17.30
2006,05,31,13,18,17.30
2006,05,31,13,19,17.40
2006,05,31,13,20,17.50
2006,05,31,13,21,17.60
2006,05,31,13,22,17.60
2006,05,31,13,23,17.60
2006,05,31,13,24,17.60
2006,05,31,13,25,17.70
2006,05,31,13,26,17.70
2006,05,31,13,27,17.70
2006,05,31,13,28,17.60
2006,05,31,13,29,17.60
2006,05,31,13,30,17.50
2006,05,31,13,31,17.50
2006,05,31,13,32,17.40
2006,05,31,13,33,17.30
2006,05,31,13,34,17.20
2006,05,31,13,35,17.10
2006,05,31,13,36,17.10
2006,05,31,13,37,17.00
2006,05,31,13,38,17.00
2006,05,31,13,39,17.00
2006,05,31,13,40,17.00
2006,05,31,13,41,17.00
2006,05,31,13,42,17.00
2006,05,31,13,43,17.10
2006,05,31,13,44,17.20
2006,05,31,13,45,17.20
2006,05,31,13,46,17.40
2006,05,31,13,47,17.50
2006,05,31,13,48,17.50
2006,05,31,13,49,17.60
2006,05,31,13,50,17.70
2006,05,31,13,51,17.70
2006,05,31,13,52,17.80
2006,05,31,13,53,17.70
2006,05,31,13,54,17.70
2006,05,31,13,55,17.80
2006,05,31,13,56,17.80
2006,05,31,13,57,17.80
2006,05,31,13,58,17.80
2006,05,31,13,59,17.80
2006,05,31,14,00,17.70
2006,05,31,14,01,17.60
2006,05,31,14,02,17.60
2006,05,31,14,03,17.50
2006,05,31,14,04,17.50
2006,05,31,14,05,17.50
2006,05,31,14,06,17.40
2006,05,31,14,07,17.30
2006,05,31,14,08,17.30
2006,05,31,14,09,17.30
2006,05,31,14,10,17.30
2006,05,31,14,11,17.30
2006,05,31,14,12,17.30
2006,05,31,14,13,17.30
2006,05,31,14,14,17.40
2006,05,31,14,15,17.40
2006,05,31,14,16,17.40
2006,05,31,14,17,17.40
2006,05,31,14,18,17.40
2006,05,31,14,19,17.50
2006,05,31,14,20,17.50
2006,05,31,14,21,17.50
2006,05,31,14,22,17.40
2006,05,31,14,23,17.40
2006,05,31,14,24,17.40
2006,05,31,14,25,17.40
2006,05,31,14,26,17.50
2006,05,31,14,27,17.50
2006,05,31,14,28,17.60
2006,05,31,14,29,17.70
2006,05,31,14,30,17.80
2006,05,31,14,31,17.80
2006,05,31,14,32,17.80
2006,05,31,14,33,17.90
2006,05,31,14,34,17.90
2006,05,31,14,35,17.90
2006,05,31,14,36,18.00
2006,05,31,14,37,18.10
2006,05,31,14,38,18.10
2006,05,31,14,39,18.10
2006,05,31,14,40,18.10
2006,05,31,14,41,18.00
2006,05,31,14,42,17.90
2006,05,31,14,43,17.90
2006,05,31,14,44,17.80
2006,05,31,14,45,17.80
2006,05,31,14,46,17.70
2006,05,31,14,47,17.60
2006,05,31,14,48,17.50
2006,05,31,14,49,17.40
2006,05,31,14,50,17.30
2006,05,31,14,51,17.30
2006,05,31,14,52,17.20
2006,05,31,14,53,17.20
2006,05,31,14,54,17.10
2006,05,31,14,55,17.00
2006,05,31,14,56,17.00
2006,05,31,14,57,17.00
2006,05,31,14,58,17.00
2006,05,31,14,59,16.90
2006,05,31,15,00,16.90
2006,05,31,15,01,16.80
2006,05,31,15,02,16.70
2006,05,31,15,03,16.70
2006,05,31,15,04,16.70
2006,05,31,15,05,16.70
2006,05,31,15,06,16.70
2006,05,31,15,07,16.70
2006,05,31,15,08,16.70
2006,05,31,15,09,16.70
2006,05,31,15,10,16.60
2006,05,31,15,11,16.60
2006,05,31,15,12,16.60
2006,05,31,15,13,16.60
2006,05,31,15,14,16.60
2006,05,31,15,15,16.60
2006,05,31,15,16,16.60
2006,05,31,15,17,16.60
2006,05,31,15,18,16.60
2006,05,31,15,19,16.60
2006,05,31,15,20,16.60
2006,05,31,15,21,16.60
2006,05,31,15,22,16.60
2006,05,31,15,23,16.60
2006,05,31,15,24,16.60
2006,05,31,15,25,16.60
2006,05,31,15,26,16.60
2006,05,31,15,27,16.60
2006,05,31,15,28,16.70
2006,05,31,15,29,16.70
2006,05,31,15,30,16.70
2006,05,31,15,31,16.70
2006,05,31,15,32,16.70
2006,05,31,15,33,16.70
2006,05,31,15,34,16.70
2006,05,31,15,35,16.70
2006,05,31,15,36,16.70
2006,05,31,15,37,16.70
2006,05,31,15,38,16.70
2006,05,31,15,39,16.70
2006,05,31,15,40,16.80
2006,05,31,15,41,16.80
2006,05,31,15,42,16.80
2006,05,31,15,43,16.90
2006,05,31,15,44,16.90
2006,05,31,15,45,16.90
2006,05,31,15,46,16.90
2006,05,31,15,47,16.90
2006,05,31,15,48,16.90
2006,05,31,15,49,16.90
2006,05,31,15,50,16.90
2006,05,31,15,51,16.90
2006,05,31,15,52,16.90
2006,05,31,15,53,16.90
2006,05,31,15,54,16.90
2006,05,31,15,55,16.90
2006,05,31,15,56,17.00
2006,05,31,15,57,17.00
2006,05,31,15,58,17.00
2006,05,31,15,59,17.00
2006,05,31,16,00,17.00
2006,05,31,16,01,17.10
2006,05,31,16,02,17.10
2006,05,31,16,03,17.10
2006,05,31,16,04,17.10
2006,05,31,16,05,17.10
2006,05,31,16,06,17.00
2006,05,31,16,07,17.00
2006,05,31,16,08,17.00
2006,05,31,16,09,17.00
2006,05,31,16,10,17.00
2006,05,31,16,11,17.00
2006,05,31,16,12,17.00
2006,05,31,16,13,17.00
2006,05,31,16,14,16.90
2006,05,31,16,15,16.90
2006,05,31,16,16,16.90
2006,05,31,16,17,16.90
2006,05,31,16,18,16.80
2006,05,31,16,19,16.80
2006,05,31,16,20,16.80
2006,05,31,16,21,16.80
2006,05,31,16,22,16.80
2006,05,31,16,23,16.80
2006,05,31,16,24,16.80
2006,05,31,16,25,16.90
2006,05,31,16,26,16.90
2006,05,31,16,27,16.90
2006,05,31,16,28,16.80
2006,05,31,16,29,16.80
2006,05,31,16,30,16.80
2006,05,31,16,31,16.80
2006,05,31,16,32,16.80
2006,05,31,16,33,16.80
2006,05,31,16,34,16.80
2006,05,31,16,35,16.80
2006,05,31,16,36,16.80
2006,05,31,16,37,16.80
2006,05,31,16,38,16.80
2006,05,31,16,39,16.80
2006,05,31,16,40,16.80
2006,05,31,16,41,16.80
2006,05,31,16,42,16.80
2006,05,31,16,43,16.80
2006,05,31,16,44,16.80
2006,05,31,16,45,16.80
2006,05,31,16,46,16.80
2006,05,31,16,47,16.80
2006,05,31,16,48,16.70
2006,05,31,16,49,16.70
2006,05,31,16,50,16.70
2006,05,31,16,51,16.70
2006,05,31,16,52,16.70
2006,05,31,16,53,16.70
2006,05,31,16,54,16.70
2006,05,31,16,55,16.70
2006,05,31,16,56,16.70
2006,05,31,16,57,16.70
2006,05,31,16,58,16.70
2006,05,31,16,59,16.70
2006,05,31,17,00,16.70
2006,05,31,17,01,16.80
2006,05,31,17,02,16.80
2006,05,31,17,03,16.80
2006,05,31,17,04,16.80
2006,05,31,17,05,16.80
2006,05,31,17,06,16.90
2006,05,31,17,07,16.90
2006,05,31,17,08,17.00
2006,05,31,17,09,17.00
2006,05,31,17,10,17.00
2006,05,31,17,11,17.00
2006,05,31,17,12,17.10
2006,05,31,17,13,17.10
2006,05,31,17,14,17.10
2006,05,31,17,15,17.10
2006,05,31,17,16,17.10
2006,05,31,17,17,17.10
2006,05,31,17,18,17.10
2006,05,31,17,19,17.10